Location: Unspecified
(47.6578°N, 23.5640°E)
Time: 14:32:10
(UTC+02:00)

ISS - Pass Details

Date: 15 December 2017
Orbit: 403 x 407 km, 51.6° (Epoch: 12 December)

Event Time Altitude Azimuth Distance (km) Brightness Sun altitude
Rises 18:56:25 0° 282° (WNW) 2,328 1.2 -22.8°
Reaches altitude 10° 18:59:29 10° 251° (WSW) 1,462 0.1 -23.3°
Maximum altitude 19:00:53 12° 226° (SW) 1,332 -0.5 -23.5°
Drops below altitude 10° 19:02:17 10° 200° (SSW) 1,457 -0.7 -23.8°
Enters shadow 19:03:28 - 184° (S) 1,725 -0.5 -24.0°
